Back to Top

Language: 

My Weather Underground Personal Weather Station Historical Data with Graphs...

Delerius Weather Station Historical Data
Daily Summary for May 2, 2017 Units:  Metric    English   Both
« Previous Day
Next Day »
Daily Weekly Monthly Yearly Custom
  High: Low: Average:
Temperature: 15.2 °C 7.9 °C 10.6 °C
Dew Point: 9.3 °C 6 °C 7.7 °C
Humidity: 94 % 65 % 83 %
Wind Speed: 14.5 km/h 0 km/h 6.1 km/h
Wind Gust: 30.6 km/h - -
Wind:- - ENE
Pressure: 1026.3 hPa 1015.8 hPa -
Precipitation: 0 mm    
Historical Graphs
 
 
Tabular Data for May 2, 2017
Time Temperature Dew Point Pressure Wind Wind Speed Wind Gust Humidity Rainfall Rate (Hourly) solar Conditions
00:01 8.2 °C 6.8 °C 1015.8 hPa NE 8 km/h 14.5 km/h 91 % 0 mm 0 W/m2
00:06 8.2 °C 6.8 °C 1016.1 hPa NE 9.7 km/h 12.9 km/h 91 % 0 mm 0 W/m2
00:11 8.2 °C 6.8 °C 1016.1 hPa NE 9.7 km/h 14.5 km/h 91 % 0 mm 0 W/m2
00:16 8.2 °C 6.8 °C 1016.1 hPa NNE 9.7 km/h 14.5 km/h 91 % 0 mm 0 W/m2
00:21 8.2 °C 6.8 °C 1016.1 hPa NNE 8 km/h 14.5 km/h 91 % 0 mm 0 W/m2
00:26 8.2 °C 6.8 °C 1016.1 hPa NNE 8 km/h 14.5 km/h 91 % 0 mm 0 W/m2
00:31 8.2 °C 6.8 °C 1016.1 hPa NNE 6.4 km/h 12.9 km/h 91 % 0 mm 0 W/m2
00:36 8.2 °C 6.8 °C 1016.5 hPa NNE 8 km/h 14.5 km/h 91 % 0 mm 0 W/m2
00:41 8.2 °C 6.8 °C 1016.1 hPa NE 8 km/h 14.5 km/h 91 % 0 mm 0 W/m2
00:46 8.2 °C 6.8 °C 1016.1 hPa NE 6.4 km/h 14.5 km/h 91 % 0 mm 0 W/m2
00:51 8.1 °C 6.7 °C 1016.1 hPa NE 6.4 km/h 12.9 km/h 91 % 0 mm 0 W/m2
00:56 8.1 °C 6.7 °C 1016.5 hPa NE 6.4 km/h 14.5 km/h 91 % 0 mm 0 W/m2
01:01 8.1 °C 6.7 °C 1016.5 hPa NE 6.4 km/h 14.5 km/h 91 % 0 mm 0 W/m2
01:06 8 °C 6.6 °C 1016.5 hPa NE 6.4 km/h 14.5 km/h 91 % 0 mm 0 W/m2
01:11 8 °C 6.6 °C 1016.5 hPa NE 6.4 km/h 14.5 km/h 91 % 0 mm 0 W/m2
01:16 8 °C 6.6 °C 1016.5 hPa NE 6.4 km/h 12.9 km/h 91 % 0 mm 0 W/m2
01:21 7.9 °C 6.5 °C 1016.8 hPa NE 8 km/h 16.1 km/h 91 % 0 mm 0 W/m2
01:27 7.9 °C 6.7 °C 1016.8 hPa NE 6.4 km/h 16.1 km/h 92 % 0 mm 0 W/m2
01:32 7.9 °C 6.7 °C 1016.8 hPa NE 6.4 km/h 14.5 km/h 92 % 0 mm 0 W/m2
01:37 7.9 °C 6.7 °C 1016.8 hPa NE 4.8 km/h 14.5 km/h 92 % 0 mm 0 W/m2
01:42 7.9 °C 6.7 °C 1017.2 hPa NE 4.8 km/h 14.5 km/h 92 % 0 mm 0 W/m2
01:47 7.9 °C 6.7 °C 1017.2 hPa ENE 4.8 km/h 14.5 km/h 92 % 0 mm 0 W/m2
01:52 7.9 °C 6.7 °C 1017.2 hPa ENE 3.2 km/h 11.3 km/h 92 % 0 mm 0 W/m2
01:57 7.9 °C 6.7 °C 1017.2 hPa ENE 4.8 km/h 11.3 km/h 92 % 0 mm 0 W/m2
02:02 7.9 °C 6.7 °C 1017.2 hPa NE 6.4 km/h 12.9 km/h 92 % 0 mm 0 W/m2
02:07 7.9 °C 6.7 °C 1017.2 hPa NE 4.8 km/h 12.9 km/h 92 % 0 mm 0 W/m2
02:12 7.9 °C 6.7 °C 1017.2 hPa NE 6.4 km/h 11.3 km/h 92 % 0 mm 0 W/m2
02:17 7.9 °C 6.7 °C 1017.5 hPa NE 6.4 km/h 12.9 km/h 92 % 0 mm 0 W/m2
02:22 7.9 °C 6.7 °C 1017.5 hPa NE 8 km/h 12.9 km/h 92 % 0 mm 0 W/m2
02:27 7.9 °C 6.7 °C 1017.5 hPa NNE 8 km/h 12.9 km/h 92 % 0 mm 0 W/m2
02:32 7.9 °C 6.7 °C 1017.5 hPa NNE 6.4 km/h 12.9 km/h 92 % 0 mm 0 W/m2
02:37 7.9 °C 6.7 °C 1017.5 hPa NNE 6.4 km/h 12.9 km/h 92 % 0 mm 0 W/m2
02:42 7.9 °C 6.7 °C 1017.5 hPa NNE 8 km/h 14.5 km/h 92 % 0 mm 0 W/m2
02:47 7.9 °C 6.7 °C 1017.5 hPa NNE 8 km/h 14.5 km/h 92 % 0 mm 0 W/m2
02:52 7.9 °C 6.7 °C 1017.5 hPa NNE 8 km/h 12.9 km/h 92 % 0 mm 0 W/m2
02:57 7.9 °C 6.7 °C 1017.8 hPa NE 6.4 km/h 12.9 km/h 92 % 0 mm 0 W/m2
03:02 7.9 °C 6.7 °C 1017.8 hPa NNE 4.8 km/h 11.3 km/h 92 % 0 mm 0 W/m2
03:07 7.9 °C 6.7 °C 1017.8 hPa NNE 4.8 km/h 11.3 km/h 92 % 0 mm 0 W/m2
03:12 7.9 °C 6.7 °C 1017.8 hPa NE 6.4 km/h 11.3 km/h 92 % 0 mm 0 W/m2
03:17 7.9 °C 6.7 °C 1017.8 hPa NE 3.2 km/h 11.3 km/h 92 % 0 mm 0 W/m2
03:22 7.9 °C 6.7 °C 1017.8 hPa NE 4.8 km/h 12.9 km/h 92 % 0 mm 0 W/m2
03:27 8 °C 6.8 °C 1017.8 hPa NE 6.4 km/h 12.9 km/h 92 % 0 mm 0 W/m2
03:32 8 °C 6.8 °C 1017.8 hPa ENE 4.8 km/h 11.3 km/h 92 % 0 mm 0 W/m2
03:37 8 °C 6.8 °C 1017.8 hPa NE 6.4 km/h 11.3 km/h 92 % 0 mm 0 W/m2
03:42 8 °C 6.8 °C 1017.8 hPa NE 6.4 km/h 12.9 km/h 92 % 0 mm 0 W/m2
03:47 8 °C 6.9 °C 1017.8 hPa NE 6.4 km/h 14.5 km/h 93 % 0 mm 0 W/m2
03:52 8.1 °C 7.1 °C 1017.8 hPa NE 6.4 km/h 14.5 km/h 93 % 0 mm 0 W/m2
03:57 8.1 °C 7.1 °C 1017.8 hPa NE 4.8 km/h 12.9 km/h 93 % 0 mm 0 W/m2
04:02 8.1 °C 7.1 °C 1017.8 hPa ENE 3.2 km/h 12.9 km/h 93 % 0 mm 0 W/m2
04:07 8.1 °C 7.1 °C 1018.2 hPa ENE 4.8 km/h 14.5 km/h 93 % 0 mm 0 W/m2
04:13 8.1 °C 7.1 °C 1018.2 hPa ENE 4.8 km/h 14.5 km/h 93 % 0 mm 0 W/m2
04:18 8.1 °C 7.1 °C 1018.2 hPa ENE 4.8 km/h 12.9 km/h 93 % 0 mm 0 W/m2
04:23 8.1 °C 7.1 °C 1018.2 hPa ENE 3.2 km/h 11.3 km/h 93 % 0 mm 0 W/m2
04:28 8.1 °C 7.1 °C 1018.2 hPa ENE 3.2 km/h 9.7 km/h 93 % 0 mm 0 W/m2
04:33 8.1 °C 7.1 °C 1018.2 hPa ENE 3.2 km/h 9.7 km/h 93 % 0 mm 0 W/m2
04:38 8.1 °C 7.1 °C 1018.2 hPa ENE 1.6 km/h 9.7 km/h 93 % 0 mm 0 W/m2
04:43 8.1 °C 7.1 °C 1018.2 hPa ENE 1.6 km/h 8 km/h 93 % 0 mm 0 W/m2
04:48 8.1 °C 7.1 °C 1018.2 hPa East 1.6 km/h 8 km/h 93 % 0 mm 0 W/m2
04:53 8.1 °C 7.1 °C 1018.5 hPa East 1.6 km/h 6.4 km/h 93 % 0 mm 0 W/m2
04:58 8.1 °C 7.1 °C 1018.5 hPa ENE 3.2 km/h 9.7 km/h 93 % 0 mm 0 W/m2
05:03 8.1 °C 7.1 °C 1018.5 hPa ENE 3.2 km/h 9.7 km/h 93 % 0 mm 0 W/m2
05:08 8.1 °C 7.1 °C 1018.5 hPa East 3.2 km/h 8 km/h 93 % 0 mm 0 W/m2
05:13 8.1 °C 7.1 °C 1018.5 hPa East 1.6 km/h 9.7 km/h 93 % 0 mm 0 W/m2
05:18 8.1 °C 7.1 °C 1018.5 hPa ENE 1.6 km/h 9.7 km/h 93 % 0 mm 0 W/m2
05:23 8.2 °C 7.3 °C 1018.5 hPa Calm   6.4 km/h 94 % 0 mm 0 W/m2
05:28 8.2 °C 7.1 °C 1018.8 hPa Calm   3.2 km/h 93 % 0 mm 0 W/m2
05:33 8.2 °C 7.1 °C 1018.8 hPa Calm   8 km/h 93 % 0 mm 0 W/m2
05:38 8.3 °C 7.2 °C 1018.8 hPa ENE 1.6 km/h 8 km/h 93 % 0 mm 5 W/m2
05:43 8.3 °C 7.2 °C 1019.2 hPa ENE 1.6 km/h 6.4 km/h 93 % 0 mm 5 W/m2
05:48 8.3 °C 7.2 °C 1019.2 hPa ENE 1.6 km/h 8 km/h 93 % 0 mm 7 W/m2
05:53 8.3 °C 7.2 °C 1019.2 hPa ENE 1.6 km/h 8 km/h 93 % 0 mm 9 W/m2
05:58 8.3 °C 7.2 °C 1019.2 hPa Calm   3.2 km/h 93 % 0 mm 12 W/m2
06:03 8.3 °C 7.2 °C 1019.2 hPa Calm   3.2 km/h 93 % 0 mm 16 W/m2
06:08 8.3 °C 7.4 °C 1019.2 hPa Calm     94 % 0 mm 16 W/m2
06:14 8.3 °C 7.4 °C 1019.2 hPa Calm     94 % 0 mm 14 W/m2
06:19 8.4 °C 7.3 °C 1019.5 hPa Calm   6.4 km/h 93 % 0 mm 14 W/m2
06:24 8.4 °C 7.3 °C 1019.5 hPa Calm   6.4 km/h 93 % 0 mm 18 W/m2
06:29 8.4 °C 7.3 °C 1019.5 hPa ENE 1.6 km/h 8 km/h 93 % 0 mm 21 W/m2
06:34 8.4 °C 7.5 °C 1019.5 hPa ENE 1.6 km/h 8 km/h 94 % 0 mm 28 W/m2
06:39 8.4 °C 7.5 °C 1019.5 hPa Calm   6.4 km/h 94 % 0 mm 28 W/m2
06:44 8.4 °C 7.5 °C 1019.9 hPa ENE 1.6 km/h 6.4 km/h 94 % 0 mm 33 W/m2
06:49 8.5 °C 7.6 °C 1019.9 hPa Calm   6.4 km/h 94 % 0 mm 35 W/m2
06:54 8.5 °C 7.6 °C 1019.9 hPa ENE 1.6 km/h 9.7 km/h 94 % 0 mm 44 W/m2
06:59 8.5 °C 7.6 °C 1019.9 hPa ENE 1.6 km/h 9.7 km/h 94 % 0 mm 60 W/m2
07:04 8.6 °C 7.7 °C 1019.9 hPa Calm   6.4 km/h 94 % 0 mm 56 W/m2
07:09 8.6 °C 7.6 °C 1019.9 hPa Calm   3.2 km/h 93 % 0 mm 63 W/m2
07:14 8.6 °C 7.6 °C 1019.9 hPa Calm   3.2 km/h 93 % 0 mm 56 W/m2
07:19 8.7 °C 7.6 °C 1020.2 hPa Calm   6.4 km/h 93 % 0 mm 69 W/m2
07:24 8.7 °C 7.8 °C 1020.2 hPa Calm   6.4 km/h 94 % 0 mm 63 W/m2
07:29 8.8 °C 7.7 °C 1020.2 hPa Calm   3.2 km/h 93 % 0 mm 63 W/m2
07:35 8.8 °C 7.7 °C 1020.2 hPa Calm   4.8 km/h 93 % 0 mm 69 W/m2
07:40 8.9 °C 7.8 °C 1020.5 hPa NE 1.6 km/h 9.7 km/h 93 % 0 mm 88 W/m2
07:45 8.9 °C 7.8 °C 1020.5 hPa NE 1.6 km/h 9.7 km/h 93 % 0 mm 81 W/m2
07:50 9 °C 7.9 °C 1020.5 hPa NNE 1.6 km/h 8 km/h 93 % 0 mm 104 W/m2
07:55 9 °C 7.9 °C 1020.5 hPa NNE 1.6 km/h 8 km/h 93 % 0 mm 83 W/m2
08:00 9.1 °C 7.9 °C 1020.5 hPa NNE 1.6 km/h 8 km/h 92 % 0 mm 142 W/m2
08:05 9.2 °C 7.9 °C 1020.5 hPa NNE 1.6 km/h 8 km/h 92 % 0 mm 142 W/m2
08:10 9.3 °C 8.1 °C 1020.5 hPa NNE 1.6 km/h 8 km/h 92 % 0 mm 137 W/m2
08:15 9.4 °C 8 °C 1020.9 hPa NNE 1.6 km/h 6.4 km/h 91 % 0 mm 137 W/m2
08:20 9.5 °C 8.1 °C 1020.9 hPa NNE 1.6 km/h 6.4 km/h 91 % 0 mm 153 W/m2
08:25 9.6 °C 8.1 °C 1020.9 hPa NNE 1.6 km/h 8 km/h 90 % 0 mm 123 W/m2
08:30 9.7 °C 8.1 °C 1020.9 hPa NNW 3.2 km/h 8 km/h 90 % 0 mm 135 W/m2
08:35 9.7 °C 8 °C 1020.9 hPa NNW 3.2 km/h 8 km/h 89 % 0 mm 151 W/m2
08:40 9.7 °C 8 °C 1020.9 hPa NNE 1.6 km/h 8 km/h 89 % 0 mm 158 W/m2
08:45 9.7 °C 8 °C 1020.9 hPa NE 3.2 km/h 9.7 km/h 89 % 0 mm 185 W/m2
08:50 9.8 °C 8.1 °C 1021.2 hPa NE 4.8 km/h 9.7 km/h 89 % 0 mm 172 W/m2
08:55 9.8 °C 7.9 °C 1021.2 hPa NNE 4.8 km/h 11.3 km/h 88 % 0 mm 141 W/m2
09:00 9.8 °C 7.9 °C 1021.2 hPa NNE 6.4 km/h 11.3 km/h 88 % 0 mm 183 W/m2
09:02 9.8 °C 7.9 °C 1021.2 hPa NNE 4.8 km/h 11.3 km/h 88 % 0 mm 197 W/m2
09:07 9.9 °C 8 °C 1021.2 hPa NNE 6.4 km/h 14.5 km/h 88 % 0 mm 200 W/m2
09:12 10.1 °C 8.2 °C 1021.6 hPa North 6.4 km/h 14.5 km/h 88 % 0 mm 209 W/m2
09:13 10.1 °C 8.2 °C 1021.6 hPa North 6.4 km/h 14.5 km/h 88 % 0 mm 209 W/m2
09:18 10.2 °C 8.3 °C 1021.6 hPa NNW 3.2 km/h 9.7 km/h 88 % 0 mm 250 W/m2
09:23 10.4 °C 8.3 °C 1021.6 hPa NNW 4.8 km/h 11.3 km/h 87 % 0 mm 246 W/m2
09:28 10.6 °C 8.3 °C 1021.6 hPa NNW 4.8 km/h 11.3 km/h 86 % 0 mm 343 W/m2
09:33 10.8 °C 8.4 °C 1021.6 hPa North 3.2 km/h 9.7 km/h 85 % 0 mm 302 W/m2
09:38 11 °C 8.6 °C 1021.6 hPa NNW 3.2 km/h 9.7 km/h 85 % 0 mm 278 W/m2
09:43 11.2 °C 8.6 °C 1021.6 hPa NW 3.2 km/h 9.7 km/h 84 % 0 mm 271 W/m2
09:48 11.4 °C 8.4 °C 1021.6 hPa NW 3.2 km/h 9.7 km/h 82 % 0 mm 260 W/m2
09:53 11.5 °C 8.6 °C 1021.6 hPa NW 3.2 km/h 9.7 km/h 82 % 0 mm 330 W/m2
09:58 11.6 °C 8.6 °C 1021.6 hPa NW 1.6 km/h 6.4 km/h 82 % 0 mm 318 W/m2
10:03 11.7 °C 8.4 °C 1021.6 hPa NNE 1.6 km/h 11.3 km/h 80 % 0 mm 236 W/m2
10:08 11.7 °C 8.2 °C 1021.6 hPa NNE 4.8 km/h 11.3 km/h 79 % 0 mm 236 W/m2
10:13 11.8 °C 8.4 °C 1021.6 hPa NNE 4.8 km/h 11.3 km/h 80 % 0 mm 352 W/m2
10:18 11.9 °C 8.6 °C 1021.6 hPa NE 4.8 km/h 12.9 km/h 80 % 0 mm 406 W/m2
10:23 12.1 °C 8.8 °C 1021.6 hPa NNE 6.4 km/h 12.9 km/h 80 % 0 mm 446 W/m2
10:28 12.4 °C 8.8 °C 1021.6 hPa North 8 km/h 12.9 km/h 79 % 0 mm 271 W/m2
10:33 12.5 °C 8.8 °C 1021.6 hPa North 6.4 km/h 12.9 km/h 78 % 0 mm 272 W/m2
10:38 12.5 °C 8.8 °C 1021.6 hPa NNE 6.4 km/h 14.5 km/h 78 % 0 mm 399 W/m2
10:43 12.6 °C 8.9 °C 1021.6 hPa NNE 6.4 km/h 14.5 km/h 78 % 0 mm 413 W/m2
10:48 12.8 °C 9.1 °C 1021.9 hPa NE 6.4 km/h 11.3 km/h 78 % 0 mm 415 W/m2
10:53 13 °C 8.9 °C 1021.9 hPa NE 6.4 km/h 14.5 km/h 76 % 0 mm 772 W/m2
10:58 12.9 °C 8.6 °C 1021.9 hPa NNE 8 km/h 16.1 km/h 75 % 0 mm 334 W/m2
11:03 13 °C 8.9 °C 1021.9 hPa NNE 8 km/h 16.1 km/h 76 % 0 mm 714 W/m2
11:08 13.2 °C 9.1 °C 1021.9 hPa NNE 6.4 km/h 14.5 km/h 76 % 0 mm 316 W/m2
11:13 13.3 °C 8.9 °C 1021.9 hPa North 4.8 km/h 12.9 km/h 75 % 0 mm 323 W/m2
11:18 13.3 °C 8.8 °C 1021.9 hPa NNE 6.4 km/h 12.9 km/h 74 % 0 mm 455 W/m2
11:23 13.2 °C 8.9 °C 1021.9 hPa NNE 6.4 km/h 17.7 km/h 75 % 0 mm 283 W/m2
11:28 12.9 °C 8.6 °C 1021.6 hPa NNE 8 km/h 17.7 km/h 75 % 0 mm 403 W/m2
11:33 13 °C 8.7 °C 1021.6 hPa NNE 8 km/h 17.7 km/h 75 % 0 mm 991 W/m2
11:38 13.4 °C 9.1 °C 1021.6 hPa NNE 6.4 km/h 14.5 km/h 75 % 0 mm 687 W/m2
11:43 13.7 °C 8.9 °C 1021.6 hPa North 6.4 km/h 14.5 km/h 73 % 0 mm 510 W/m2
11:48 13.9 °C 8.9 °C 1021.6 hPa North 6.4 km/h 14.5 km/h 72 % 0 mm 522 W/m2
11:53 14.2 °C 9.2 °C 1021.6 hPa NE 4.8 km/h 12.9 km/h 72 % 0 mm 346 W/m2
11:58 14.2 °C 8.8 °C 1021.6 hPa NE 6.4 km/h 14.5 km/h 70 % 0 mm 318 W/m2
12:04 13.9 °C 8.7 °C 1021.6 hPa NNE 8 km/h 17.7 km/h 71 % 0 mm 246 W/m2
12:05 13.8 °C 8.8 °C 1021.6 hPa NNE 8 km/h 17.7 km/h 72 % 0 mm 230 W/m2
12:10 13.5 °C 8.8 °C 1021.6 hPa NNE 9.7 km/h 19.3 km/h 73 % 0 mm 185 W/m2
12:15 13.3 °C 8.6 °C 1021.9 hPa NE 9.7 km/h 19.3 km/h 73 % 0 mm 227 W/m2
12:20 13.2 °C 8.7 °C 1021.9 hPa NE 6.4 km/h 16.1 km/h 74 % 0 mm 283 W/m2
12:25 13.3 °C 8.8 °C 1021.6 hPa NE 8 km/h 14.5 km/h 74 % 0 mm 248 W/m2
12:30 13.3 °C 8.8 °C 1021.9 hPa NE 8 km/h 14.5 km/h 74 % 0 mm 142 W/m2
12:35 13.3 °C 8.6 °C 1021.9 hPa NE 6.4 km/h 12.9 km/h 73 % 0 mm 128 W/m2
12:40 13.3 °C 8.6 °C 1021.9 hPa NE 6.4 km/h 12.9 km/h 73 % 0 mm 221 W/m2
12:45 13.4 °C 8.4 °C 1021.9 hPa ENE 4.8 km/h 12.9 km/h 72 % 0 mm 237 W/m2
12:51 13.4 °C 8.2 °C 1021.9 hPa ENE 8 km/h 17.7 km/h 71 % 0 mm 220 W/m2
12:56 13.3 °C 8.2 °C 1021.9 hPa ENE 9.7 km/h 17.7 km/h 71 % 0 mm 211 W/m2
13:01 13.4 °C 8.1 °C 1021.9 hPa ENE 8 km/h 17.7 km/h 70 % 0 mm 218 W/m2
13:06 13.4 °C 8.1 °C 1021.9 hPa ENE 8 km/h 16.1 km/h 70 % 0 mm 220 W/m2
13:11 13.4 °C 8.1 °C 1021.9 hPa ENE 8 km/h 14.5 km/h 70 % 0 mm 211 W/m2
13:16 13.5 °C 8.3 °C 1021.9 hPa ENE 8 km/h 16.1 km/h 71 % 0 mm 179 W/m2
13:21 13.4 °C 8.2 °C 1021.9 hPa ENE 9.7 km/h 16.1 km/h 71 % 0 mm 181 W/m2
13:26 13.4 °C 8.2 °C 1021.9 hPa ENE 8 km/h 14.5 km/h 71 % 0 mm 262 W/m2
13:31 13.5 °C 8.6 °C 1021.9 hPa NE 6.4 km/h 14.5 km/h 72 % 0 mm 353 W/m2
13:36 13.6 °C 8.7 °C 1021.9 hPa NE 6.4 km/h 17.7 km/h 72 % 0 mm 315 W/m2
13:41 13.7 °C 8.6 °C 1021.9 hPa ENE 6.4 km/h 17.7 km/h 71 % 0 mm 253 W/m2
13:46 13.8 °C 8.4 °C 1021.9 hPa ENE 4.8 km/h 12.9 km/h 70 % 0 mm 260 W/m2
13:51 13.8 °C 8.4 °C 1021.9 hPa East 4.8 km/h 11.3 km/h 70 % 0 mm 244 W/m2
13:56 13.8 °C 8.4 °C 1022.2 hPa ENE 6.4 km/h 14.5 km/h 70 % 0 mm 172 W/m2
14:01 13.8 °C 8.4 °C 1021.9 hPa NE 6.4 km/h 14.5 km/h 70 % 0 mm 225 W/m2
14:06 13.8 °C 8.6 °C 1021.9 hPa NE 6.4 km/h 14.5 km/h 71 % 0 mm 265 W/m2
14:11 13.8 °C 8.6 °C 1021.9 hPa NE 6.4 km/h 16.1 km/h 71 % 0 mm 306 W/m2
14:16 13.9 °C 8.5 °C 1021.9 hPa NE 9.7 km/h 19.3 km/h 70 % 0 mm 388 W/m2
14:21 14.1 °C 8.5 °C 1021.9 hPa ENE 8 km/h 19.3 km/h 69 % 0 mm 311 W/m2
14:26 14.3 °C 8.4 °C 1021.9 hPa NE 8 km/h 17.7 km/h 68 % 0 mm 308 W/m2
14:31 14.4 °C 8.6 °C 1021.9 hPa NE 6.4 km/h 14.5 km/h 68 % 0 mm 396 W/m2
14:36 14.4 °C 8.6 °C 1021.9 hPa NE 8 km/h 16.1 km/h 68 % 0 mm 327 W/m2
14:41 14.5 °C 8.9 °C 1021.9 hPa NNE 8 km/h 16.1 km/h 69 % 0 mm 299 W/m2
14:46 14.7 °C 8.4 °C 1021.9 hPa NNE 8 km/h 29 km/h 66 % 0 mm 232 W/m2
14:51 14.6 °C 8.3 °C 1021.9 hPa NNE 9.7 km/h 29 km/h 66 % 0 mm 213 W/m2
14:56 14.6 °C 8.6 °C 1021.9 hPa NNE 9.7 km/h 19.3 km/h 67 % 0 mm 299 W/m2
15:01 14.6 °C 8.8 °C 1021.9 hPa NE 9.7 km/h 19.3 km/h 68 % 0 mm 225 W/m2
15:11 14.6 °C 8.8 °C 1021.9 hPa NE 9.7 km/h 17.7 km/h 68 % 0 mm 297 W/m2
15:21 14.7 °C 8.8 °C 1022.2 hPa NE 11.3 km/h 19.3 km/h 68 % 0 mm 471 W/m2
15:26 14.8 °C 8.9 °C 1021.9 hPa NE 11.3 km/h 19.3 km/h 68 % 0 mm 661 W/m2
15:31 15 °C 9.1 °C 1021.9 hPa NE 8 km/h 17.7 km/h 68 % 0 mm 204 W/m2
15:36 14.9 °C 8.8 °C 1022.2 hPa NE 9.7 km/h 22.5 km/h 67 % 0 mm 158 W/m2
15:42 14.8 °C 8.7 °C 1021.9 hPa NE 9.7 km/h 22.5 km/h 67 % 0 mm 144 W/m2
15:47 14.7 °C 8.8 °C 1021.9 hPa NE 8 km/h 16.1 km/h 68 % 0 mm 137 W/m2
15:52 14.6 °C 8.8 °C 1021.9 hPa NE 9.7 km/h 25.7 km/h 68 % 0 mm 132 W/m2
15:58 14.6 °C 9 °C 1022.2 hPa NE 8 km/h 25.7 km/h 69 % 0 mm 171 W/m2
16:03 14.6 °C 9 °C 1021.9 hPa NE 8 km/h 16.1 km/h 69 % 0 mm 673 W/m2
16:08 14.9 °C 9.1 °C 1021.9 hPa NE 8 km/h 24.1 km/h 68 % 0 mm 313 W/m2
16:13 15.1 °C 8.8 °C 1022.2 hPa NE 11.3 km/h 25.7 km/h 66 % 0 mm 352 W/m2
16:18 15.2 °C 9.1 °C 1022.2 hPa NE 12.9 km/h 25.7 km/h 67 % 0 mm 568 W/m2
16:23 15.2 °C 8.7 °C 1022.2 hPa ENE 12.9 km/h 30.6 km/h 65 % 0 mm 253 W/m2
16:28 15 °C 8.4 °C 1022.2 hPa ENE 12.9 km/h 30.6 km/h 65 % 0 mm 294 W/m2
16:33 14.9 °C 8.6 °C 1022.2 hPa ENE 14.5 km/h 24.1 km/h 66 % 0 mm 334 W/m2
16:38 14.8 °C 8.7 °C 1022.2 hPa ENE 14.5 km/h 25.7 km/h 67 % 0 mm 130 W/m2
16:43 14.6 °C 9.2 °C 1022.2 hPa ENE 12.9 km/h 25.7 km/h 70 % 0 mm 151 W/m2
16:48 14.3 °C 9.3 °C 1022.2 hPa ENE 12.9 km/h 29 km/h 72 % 0 mm 244 W/m2
16:53 14.1 °C 9.1 °C 1022.2 hPa ENE 14.5 km/h 29 km/h 72 % 0 mm 153 W/m2
16:58 13.9 °C 9.1 °C 1022.6 hPa ENE 14.5 km/h 25.7 km/h 73 % 0 mm 221 W/m2
17:03 13.9 °C 9.3 °C 1022.6 hPa NE 12.9 km/h 25.7 km/h 74 % 0 mm 415 W/m2
17:08 14 °C 9.2 °C 1022.6 hPa NE 12.9 km/h 29 km/h 73 % 0 mm 385 W/m2
17:13 14 °C 9.2 °C 1022.6 hPa ENE 12.9 km/h 29 km/h 73 % 0 mm 218 W/m2
17:18 13.8 °C 9.1 °C 1022.6 hPa ENE 12.9 km/h 25.7 km/h 73 % 0 mm 216 W/m2
17:23 13.8 °C 9.1 °C 1022.6 hPa ENE 12.9 km/h 25.7 km/h 73 % 0 mm 188 W/m2
17:28 13.7 °C 8.9 °C 1022.6 hPa ENE 11.3 km/h 19.3 km/h 73 % 0 mm 95 W/m2
17:33 13.6 °C 8.8 °C 1022.6 hPa ENE 11.3 km/h 22.5 km/h 73 % 0 mm 88 W/m2
17:38 13.4 °C 8.7 °C 1022.9 hPa ENE 11.3 km/h 25.7 km/h 73 % 0 mm 125 W/m2
17:43 13.2 °C 8.4 °C 1022.9 hPa ENE 12.9 km/h 25.7 km/h 73 % 0 mm 139 W/m2
17:48 12.9 °C 8.2 °C 1022.9 hPa ENE 14.5 km/h 29 km/h 73 % 0 mm 86 W/m2
17:53 12.6 °C 8.1 °C 1022.9 hPa ENE 14.5 km/h 29 km/h 74 % 0 mm 76 W/m2
17:58 12.5 °C 8.4 °C 1022.9 hPa ENE 11.3 km/h 20.9 km/h 76 % 0 mm 70 W/m2
18:03 12.4 °C 8.3 °C 1022.9 hPa ENE 11.3 km/h 19.3 km/h 76 % 0 mm 91 W/m2
18:08 12.2 °C 8.3 °C 1023.2 hPa ENE 11.3 km/h 19.3 km/h 77 % 0 mm 77 W/m2
18:13 12.1 °C 8.2 °C 1023.2 hPa ENE 11.3 km/h 20.9 km/h 77 % 0 mm 58 W/m2
18:18 12.1 °C 8.4 °C 1023.2 hPa ENE 11.3 km/h 20.9 km/h 78 % 0 mm 44 W/m2
18:24 12 °C 8.3 °C 1023.2 hPa ENE 9.7 km/h 22.5 km/h 78 % 0 mm 46 W/m2
18:29 11.9 °C 8.2 °C 1023.2 hPa ENE 11.3 km/h 22.5 km/h 78 % 0 mm 90 W/m2
18:34 11.8 °C 8.1 °C 1023.2 hPa ENE 11.3 km/h 19.3 km/h 78 % 0 mm 127 W/m2
18:39 11.8 °C 7.9 °C 1023.6 hPa ENE 9.7 km/h 19.3 km/h 77 % 0 mm 172 W/m2
18:44 11.8 °C 7.9 °C 1023.6 hPa ENE 11.3 km/h 20.9 km/h 77 % 0 mm 186 W/m2
18:49 11.8 °C 7.9 °C 1023.6 hPa ENE 11.3 km/h 20.9 km/h 77 % 0 mm 199 W/m2
18:54 11.8 °C 7.9 °C 1023.6 hPa ENE 11.3 km/h 20.9 km/h 77 % 0 mm 181 W/m2
18:59 11.8 °C 7.9 °C 1023.6 hPa ENE 11.3 km/h 19.3 km/h 77 % 0 mm 149 W/m2
19:04 11.8 °C 7.9 °C 1023.6 hPa ENE 9.7 km/h 19.3 km/h 77 % 0 mm 134 W/m2
19:09 11.7 °C 7.8 °C 1023.6 hPa ENE 9.7 km/h 20.9 km/h 77 % 0 mm 104 W/m2
19:14 11.7 °C 7.8 °C 1023.6 hPa ENE 8 km/h 20.9 km/h 77 % 0 mm 90 W/m2
19:19 11.6 °C 7.7 °C 1023.6 hPa ENE 8 km/h 20.9 km/h 77 % 0 mm 74 W/m2
19:24 11.4 °C 7.7 °C 1023.9 hPa ENE 11.3 km/h 20.9 km/h 78 % 0 mm 69 W/m2
19:29 11.3 °C 7.6 °C 1023.9 hPa ENE 9.7 km/h 19.3 km/h 78 % 0 mm 69 W/m2
19:34 11.3 °C 7.8 °C 1023.9 hPa ENE 8 km/h 19.3 km/h 79 % 0 mm 56 W/m2
19:39 11.2 °C 7.5 °C 1023.9 hPa ENE 8 km/h 19.3 km/h 78 % 0 mm 44 W/m2
19:44 11.1 °C 7.4 °C 1023.9 hPa ENE 8 km/h 17.7 km/h 78 % 0 mm 37 W/m2
19:49 10.9 °C 7.4 °C 1024.3 hPa ENE 8 km/h 14.5 km/h 79 % 0 mm 30 W/m2
19:54 10.8 °C 7.5 °C 1024.3 hPa ENE 4.8 km/h 14.5 km/h 80 % 0 mm 30 W/m2
19:59 10.7 °C 7.4 °C 1024.3 hPa ENE 4.8 km/h 12.9 km/h 80 % 0 mm 26 W/m2
20:04 10.6 °C 7.3 °C 1024.3 hPa ENE 4.8 km/h 12.9 km/h 80 % 0 mm 23 W/m2
20:09 10.5 °C 7.4 °C 1024.3 hPa ENE 3.2 km/h 9.7 km/h 81 % 0 mm 16 W/m2
20:14 10.4 °C 7.3 °C 1024.3 hPa ENE 4.8 km/h 14.5 km/h 81 % 0 mm 14 W/m2
20:19 10.4 °C 7.4 °C 1024.6 hPa ENE 4.8 km/h 14.5 km/h 82 % 0 mm 12 W/m2
20:24 10.3 °C 7.3 °C 1024.6 hPa ENE 4.8 km/h 9.7 km/h 82 % 0 mm 11 W/m2
20:29 10.2 °C 7.3 °C 1024.6 hPa ENE 4.8 km/h 11.3 km/h 82 % 0 mm 7 W/m2
20:34 10.1 °C 7.3 °C 1024.6 hPa ENE 6.4 km/h 12.9 km/h 83 % 0 mm 0 W/m2
20:39 10.1 °C 7.3 °C 1024.9 hPa ENE 6.4 km/h 12.9 km/h 83 % 0 mm 0 W/m2
20:44 10.1 °C 7.3 °C 1024.9 hPa ENE 6.4 km/h 11.3 km/h 83 % 0 mm 0 W/m2
20:45 10.1 °C 7.3 °C 1024.6 hPa ENE 6.4 km/h 11.3 km/h 83 % 0 mm 0 W/m2
20:50 10 °C 7.4 °C 1024.9 hPa ENE 4.8 km/h 11.3 km/h 84 % 0 mm 0 W/m2
20:55 9.9 °C 7.2 °C 1024.9 hPa ENE 3.2 km/h 9.7 km/h 83 % 0 mm 0 W/m2
21:00 9.8 °C 7.2 °C 1024.9 hPa ENE 3.2 km/h 12.9 km/h 84 % 0 mm 0 W/m2
21:05 9.7 °C 7.1 °C 1024.9 hPa ENE 4.8 km/h 12.9 km/h 84 % 0 mm 0 W/m2
21:10 9.6 °C 7 °C 1024.9 hPa ENE 4.8 km/h 11.3 km/h 84 % 0 mm 0 W/m2
21:15 9.5 °C 7.1 °C 1025.3 hPa ENE 4.8 km/h 11.3 km/h 85 % 0 mm 0 W/m2
21:20 9.4 °C 7 °C 1025.3 hPa East 4.8 km/h 11.3 km/h 85 % 0 mm 0 W/m2
21:25 9.4 °C 7 °C 1025.3 hPa East 3.2 km/h 11.3 km/h 85 % 0 mm 0 W/m2
21:30 9.3 °C 7.1 °C 1025.3 hPa ENE 3.2 km/h 9.7 km/h 86 % 0 mm 0 W/m2
21:35 9.3 °C 7.1 °C 1025.3 hPa ENE 3.2 km/h 12.9 km/h 86 % 0 mm 0 W/m2
21:40 9.3 °C 7.1 °C 1025.6 hPa ENE 1.6 km/h 12.9 km/h 86 % 0 mm 0 W/m2
21:45 9.3 °C 7.1 °C 1025.6 hPa East 1.6 km/h 11.3 km/h 86 % 0 mm 0 W/m2
21:50 9.3 °C 7.1 °C 1025.6 hPa East 1.6 km/h 11.3 km/h 86 % 0 mm 0 W/m2
21:55 9.3 °C 7.1 °C 1025.6 hPa ENE 3.2 km/h 12.9 km/h 86 % 0 mm 0 W/m2
22:00 9.2 °C 7 °C 1025.3 hPa ENE 6.4 km/h 12.9 km/h 86 % 0 mm 0 W/m2
22:05 9.1 °C 6.9 °C 1025.6 hPa ENE 4.8 km/h 12.9 km/h 86 % 0 mm 0 W/m2
22:10 9 °C 6.8 °C 1025.3 hPa NE 4.8 km/h 20.9 km/h 86 % 0 mm 0 W/m2
22:15 8.9 °C 6.7 °C 1025.6 hPa NNE 6.4 km/h 20.9 km/h 86 % 0 mm 0 W/m2
22:20 8.8 °C 6.6 °C 1025.6 hPa NE 6.4 km/h 19.3 km/h 86 % 0 mm 0 W/m2
22:25 8.7 °C 6.5 °C 1025.6 hPa NE 6.4 km/h 19.3 km/h 86 % 0 mm 0 W/m2
22:30 8.6 °C 6.4 °C 1025.6 hPa NE 6.4 km/h 14.5 km/h 86 % 0 mm 0 W/m2
22:35 8.5 °C 6.3 °C 1025.6 hPa NE 6.4 km/h 14.5 km/h 86 % 0 mm 0 W/m2
22:38 8.4 °C 6.2 °C 1025.6 hPa NE 4.8 km/h 12.9 km/h 86 % 0 mm 0 W/m2
22:43 8.3 °C 6.1 °C 1025.6 hPa NE 3.2 km/h 11.3 km/h 86 % 0 mm 0 W/m2
22:48 8.3 °C 6.1 °C 1026 hPa NE 1.6 km/h 11.3 km/h 86 % 0 mm 0 W/m2
22:49 8.3 °C 6.1 °C 1026 hPa NE 1.6 km/h 11.3 km/h 86 % 0 mm 0 W/m2
22:54 8.2 °C 6 °C 1026 hPa NE 3.2 km/h 17.7 km/h 86 % 0 mm 0 W/m2
22:59 8.2 °C 6.2 °C 1026 hPa NE 4.8 km/h 17.7 km/h 87 % 0 mm 0 W/m2
23:04 8.2 °C 6.2 °C 1026 hPa NE 3.2 km/h 11.3 km/h 87 % 0 mm 0 W/m2
23:09 8.1 °C 6.1 °C 1026 hPa NNE 3.2 km/h 12.9 km/h 87 % 0 mm 0 W/m2
23:14 8.1 °C 6.1 °C 1026 hPa NNE 4.8 km/h 12.9 km/h 87 % 0 mm 0 W/m2
23:19 8.1 °C 6.2 °C 1026.3 hPa NE 4.8 km/h 14.5 km/h 88 % 0 mm 0 W/m2
23:24 8.1 °C 6.2 °C 1026 hPa NE 4.8 km/h 14.5 km/h 88 % 0 mm 0 W/m2
23:29 8.1 °C 6.2 °C 1026 hPa NE 4.8 km/h 17.7 km/h 88 % 0 mm 0 W/m2
23:34 8.1 °C 6.2 °C 1026 hPa ENE 6.4 km/h 17.7 km/h 88 % 0 mm 0 W/m2
23:39 8.2 °C 6.3 °C 1026 hPa NE 6.4 km/h 16.1 km/h 88 % 0 mm 0 W/m2
23:44 8.2 °C 6.3 °C 1026 hPa NE 4.8 km/h 12.9 km/h 88 % 0 mm 0 W/m2
23:49 8.2 °C 6.3 °C 1026 hPa NNE 6.4 km/h 29 km/h 88 % 0 mm 0 W/m2
23:54 8.2 °C 6.3 °C 1026 hPa NNE 9.7 km/h 29 km/h 88 % 0 mm 0 W/m2
23:59 8.2 °C 6.3 °C 1026 hPa NE 9.7 km/h 19.3 km/h 88 % 0 mm 0 W/m2
Delerius-Weather
Compliments of Weather Underground - 2.25 mb

Data updates at regular intervals.